Lexington Weather

Lexington, Massachusetts, USA

59°F
10/23/2020 5:57pm 
  • Lexington Conditions: Overcast
  • Temperature: 59.0°F / 15.0°CColder 2.3°F than last hour.
  • Dew Point: 53.2°FDecreased 1.8°Fsince last hour.
  • Relative Humidity: 81%Increased 1.0% since last hour.
  • Wind: Wind from S S Calm, 10-min avg: 1 mph, gust: 3 mph
  • Barometer: 30.08 in Steady
  • Visibility: 10 miles
  • Rain Today: 0.00 in
  •   

Regional Weather Roundup
for Boston / Norton, MA

        
000
ASUS41 KBOX 180204
RWRBOX

REGIONAL WEATHER ROUNDUP
NATIONAL WEATHER SERVICE BOSTON/NORTON MA
1000 PM EDT SAT OCT 17 2020

NOTE:  "FAIR" INDICATES FEW OR NO CLOUDS BELOW 12,000 FEET WITH NO 
SIGNIFICANT WEATHER AND/OR OBSTRUCTIONS TO VISIBILITY.

MAZALL-180300-
EASTERN MASSACHUSETTS
  
CITY           SKY/WX    TMP DP  RH WIND       PRES   REMARKS
BOSTON         CLEAR     48  36  63 SW5       30.41R                  
BEVERLY        CLEAR     40  36  86 W3        30.38R                  
LAWRENCE       CLEAR     40  35  83 S3        30.41R                  
BEDFORD        CLEAR     37  36  96 CALM      30.39R                  
BLUE HILL        N/A     50  29  44 SW6       30.38R                  
NORWOOD        CLEAR     38  35  89 CALM      30.41R                  
MARSHFIELD     CLEAR     41  39  93 W5        30.40R                  
PLYMOUTH       CLEAR     38  35  89 CALM      30.40R                  
TAUNTON        CLEAR     37  34  89 CALM      30.41R                  
NEW BEDFORD    CLEAR     37  35  92 CALM      30.41R                  
$$

MAZALL-180300-
CAPE COD AND THE ISLANDS
  
CITY           SKY/WX    TMP DP  RH WIND       PRES   REMARKS
FALMOUTH       CLEAR     37  36  93 CALM      30.42                   
HYANNIS        CLEAR     39  36  89 CALM      30.40R                  
CHATHAM        CLEAR     42  37  82 CALM      30.42R                  
PROVINCETOWN   CLEAR     43  36  76 CALM      30.42R                  
NANTUCKET      CLEAR    N/A N/A N/A N3        30.41R                  
MARTHAS VNYRD  CLEAR     34  30  85 CALM      30.41R                  
$$
 
MAZALL-180300-
CENTRAL AND WESTERN MASSACHUSETTS
  
CITY           SKY/WX    TMP DP  RH WIND       PRES   REMARKS
WORCESTER      CLEAR     45  29  53 W7        30.39R                  
FITCHBURG      CLEAR     37  34  89 NW3       30.40R                  
ORANGE         CLEAR     36  35  96 CALM      30.41R                  
SPRINGFIELD    PTCLDY    37  35  95 CALM      30.39R                  
WESTFIELD      CLEAR     36  35  96 CALM      30.40R                  
NORTH ADAMS    CLEAR     37  33  85 CALM      30.40R                  
PITTSFIELD     CLEAR     36  32  85 CALM      30.38R                  
$$
 
RIZALL-180300-
RHODE ISLAND
  
CITY           SKY/WX    TMP DP  RH WIND       PRES   REMARKS
PROVIDENCE     CLEAR     44  37  76 CALM      30.42R                  
NEWPORT        CLEAR     41  37  86 CALM      30.40R                  
BLOCK ISLAND   CLEAR     47  34  60 NW5       30.43R                  
SMITHFIELD     CLEAR     38  36  92 CALM        N/A                   
WESTERLY       CLEAR     40  36  86 CALM      30.42R                  
$$
 
CTZALL-180300-
CONNECTICUT
  
CITY           SKY/WX    TMP DP  RH WIND       PRES   REMARKS
BRADLEY INTL   CLEAR     42  33  70 W3        30.40R                  
HARTFORD       CLEAR     43  39  86 CALM      30.42R                  
BRIDGEPORT     CLEAR     47  38  71 N3        30.41R                  
DANBURY        CLEAR     38  35  89 SW3       30.41R                  
GROTON         CLEAR     39  36  89 NE3       30.42R                  
NEW HAVEN      CLEAR     42  37  82 CALM      30.41R                  
CHESTER        NOT AVBL                                               
MERIDEN        CLEAR     39  36  89 CALM      30.42R                  
WILLIMANTIC    CLEAR     37  34  89 CALM      30.42R                  
OXFORD         CLEAR     38  33  82 CALM      30.41R                  
$$

MEZ002-015-021-024-NHZ003-005-008-011-012-014-VTZ005-008-180300-
NORTHERN NEW ENGLAND
  
CITY           SKY/WX    TMP DP  RH WIND       PRES   REMARKS
PORTLAND ME    CLEAR     40  35  83 SW7       30.37R                  
BANGOR ME      CLEAR     37  33  85 W7        30.32R WCI  32          
CONCORD NH     CLEAR     34  31  88 CALM      30.38R                  
MANCHESTER NH  CLEAR     42  34  73 CALM      30.37R                  
NASHUA NH      CLEAR     38  38 100 CALM      30.40R                  
PORTSMOUTH NH  CLEAR     40  34  77 CALM      30.37R                  
JAFFREY NH     CLEAR     34  31  88 S3        30.39R                  
KEENE NH       CLEAR     34  34 100 CALM      30.40R                  
BURLINGTON VT  CLEAR     41  35  79 CALM      30.33R                  
MT. WASHINGTON PTCLDY    23  18  80 W52         N/A  WCI   1          
$$

NYZ052-076-180300-
EASTERN NEW YORK
  
CITY           SKY/WX    TMP DP  RH WIND       PRES   REMARKS
ALBANY         CLEAR     38  35  89 S5        30.38R                  
NEW YORK CITY  PTCLDY    57  26  30 CALM      30.39R                  
$$
 
ANZALL-180300-
MARINE OBSERVATIONS
  
STATION/POSITION TIME  TEMP    WIND        PRES    VSBY  WAVE
                       AIR SEA DIR/SP/G                  HT/PER
                 (UTC) (F)     (DEG/KT/KT) (MB)    (MI)  (FT/S)
BOSTON BUOY      0150   55 57  260/  2/  2 1028.4R         2/ 5
BUZZARDS BAY     0100           50/  3/  4 1029.8R
NANTUCKET SOUND  0150      62  360/  8/ 10   N/A           1
MASS BAY-STELLWA 0104   55 58  320/  4/  8 1027.4R  1 7/8  2/ 5
ISLE OF SHOALS   0100   53     260/  6/  6 1027.4R
S OF BLOCK IS    0126      63                N/A           2/ 4
$$

......................KEY.........................
  SKY/WX - SKY CONDITION/PRESENT WEATHER
  TMP    - TEMPERATURE IN FAHRENHEIT
  DWPT   - DEWPOINT IN FAHRENHEIT
  RH     - RELATIVE HUMIDITY IN PERCENT
  WIND   - DIRECTION AND SPEED IN MPH
  PRES   - MEAN SEA LEVEL PRESSURE IN INCHES OF HG
  WCI    - WIND CHILL INDEX
  VSB    - VISIBILITY IN MILES
  HX     - HEAT INDEX
  TC     - TEMPERATURE IN CELSIUS
  VRB    - VARIABLE WIND DIRECTION
  N/A    - NOT AVAILABLE
  
      

Other recent Regional Weather Roundups

Fri Oct 23, 5:05pm

Fri Oct 23, 4:04pm

Fri Oct 23, 3:04pm

Fri Oct 23, 2:05pm

Fri Oct 23, 1:04pm

Fri Oct 23, 12:04pm

Fri Oct 23, 11:04am

Fri Oct 23, 10:04am

Fri Oct 23, 9:04am

Fri Oct 23, 8:04am

Fri Oct 23, 7:04am

Fri Oct 23, 6:04am

Fri Oct 23, 5:04am

Fri Oct 23, 4:04am

Fri Oct 23, 3:04am

Fri Oct 23, 2:04am

Fri Oct 23, 1:04am

Fri Oct 23, 12:04am

Thu Oct 22, 11:04pm

Thu Oct 22, 10:04pm

Thu Oct 22, 9:05pm

Thu Oct 22, 8:04pm

Thu Oct 22, 7:05pm

Thu Oct 22, 6:04pm

Thu Oct 22, 5:04pm

Thu Oct 22, 4:05pm

Thu Oct 22, 3:04pm

Thu Oct 22, 2:05pm

Thu Oct 22, 1:04pm

Thu Oct 22, 12:04pm

Thu Oct 22, 11:04am

Thu Oct 22, 10:05am

Thu Oct 22, 9:04am

Thu Oct 22, 8:05am

Thu Oct 22, 7:04am

Thu Oct 22, 6:04am

Thu Oct 22, 5:04am

Thu Oct 22, 4:04am

Thu Oct 22, 3:04am

Thu Oct 22, 2:04am

Thu Oct 22, 1:04am

Thu Oct 22, 12:04am

Wed Oct 21, 11:05pm

Wed Oct 21, 10:04pm

Wed Oct 21, 9:04pm

Wed Oct 21, 8:04pm

Wed Oct 21, 7:04pm

Wed Oct 21, 6:04pm

Wed Oct 21, 5:05pm

Wed Oct 21, 4:04pm

Wed Oct 21, 3:04pm

Wed Oct 21, 2:05pm

Wed Oct 21, 1:04pm

Wed Oct 21, 12:04pm

Wed Oct 21, 11:04am

Wed Oct 21, 10:04am

Wed Oct 21, 9:04am

Wed Oct 21, 8:04am

Wed Oct 21, 7:04am

Wed Oct 21, 6:04am

Wed Oct 21, 5:04am

Wed Oct 21, 4:04am

Wed Oct 21, 3:04am

Wed Oct 21, 2:04am

Wed Oct 21, 1:04am

Wed Oct 21, 12:04am

Tue Oct 20, 11:05pm

Tue Oct 20, 10:04pm

Tue Oct 20, 9:04pm

Tue Oct 20, 8:05pm

Tue Oct 20, 7:04pm

Tue Oct 20, 6:04pm

Tue Oct 20, 5:05pm

Tue Oct 20, 4:04pm

Tue Oct 20, 3:05pm

Tue Oct 20, 2:07pm

Tue Oct 20, 1:04pm

Tue Oct 20, 12:04pm

Tue Oct 20, 11:04am

Tue Oct 20, 10:05am

Tue Oct 20, 9:04am

Tue Oct 20, 8:04am

Tue Oct 20, 7:04am

Tue Oct 20, 6:04am

Tue Oct 20, 5:04am

Tue Oct 20, 4:04am

Tue Oct 20, 3:04am

Tue Oct 20, 2:04am

Tue Oct 20, 1:04am

Tue Oct 20, 12:04am

Mon Oct 19, 11:04pm

Mon Oct 19, 10:04pm

Mon Oct 19, 9:04pm

Mon Oct 19, 8:04pm

Mon Oct 19, 7:04pm

Mon Oct 19, 6:04pm

Mon Oct 19, 5:04pm

Mon Oct 19, 4:04pm

Mon Oct 19, 3:04pm

Mon Oct 19, 2:04pm

Mon Oct 19, 1:05pm

Mon Oct 19, 12:04pm

Mon Oct 19, 11:04am

Mon Oct 19, 10:04am

Mon Oct 19, 9:04am

Mon Oct 19, 8:04am

Mon Oct 19, 7:04am

Mon Oct 19, 6:04am

Mon Oct 19, 5:04am

Mon Oct 19, 4:04am

Mon Oct 19, 3:04am

Mon Oct 19, 2:04am

Mon Oct 19, 1:04am

Mon Oct 19, 12:05am

Sun Oct 18, 11:04pm

Sun Oct 18, 10:04pm

Sun Oct 18, 9:04pm

Sun Oct 18, 8:04pm

Sun Oct 18, 7:05pm

Sun Oct 18, 6:04pm

Sun Oct 18, 5:05pm

Sun Oct 18, 4:05pm

Sun Oct 18, 3:04pm

Sun Oct 18, 2:05pm

Sun Oct 18, 1:04pm

Sun Oct 18, 12:04pm

Sun Oct 18, 11:04am

Sun Oct 18, 10:04am

Sun Oct 18, 9:04am

Sun Oct 18, 8:04am

Sun Oct 18, 7:04am

Sun Oct 18, 6:04am

Sun Oct 18, 5:04am

Sun Oct 18, 4:04am

Sun Oct 18, 3:04am

Sun Oct 18, 2:04am

Sun Oct 18, 1:04am

Sun Oct 18, 12:04am

Sat Oct 17, 11:05pm

Sat Oct 17, 9:04pm

Sat Oct 17, 8:04pm

Sat Oct 17, 7:04pm

Sat Oct 17, 6:04pm

Sat Oct 17, 5:05pm

Sat Oct 17, 4:04pm

Sat Oct 17, 3:04pm

Sat Oct 17, 2:05pm

Sat Oct 17, 1:05pm

Sat Oct 17, 12:04pm

Sat Oct 17, 11:05am

Sat Oct 17, 10:04am

Sat Oct 17, 9:04am

Sat Oct 17, 8:04am

Sat Oct 17, 7:04am

Sat Oct 17, 6:04am

Sat Oct 17, 5:04am

Sat Oct 17, 4:04am

Sat Oct 17, 3:04am

Sat Oct 17, 2:04am

Sat Oct 17, 1:05am

Sat Oct 17, 12:04am

Fri Oct 16, 11:05pm

Fri Oct 16, 10:04pm

Fri Oct 16, 9:05pm

Fri Oct 16, 8:04pm

Fri Oct 16, 7:05pm

Fri Oct 16, 6:04pm

Meta data:

ID: 4db71519-e790-4be0-b53f-4aeb8920911b
Link: https://api.weather.gov/products/4db71519-e790-4be0-b53f-4aeb8920911b